Year,Month,Day,Hour,Minute,Value (Times are PST for temperature in C)
2009,07,19,00,00,17.70
2009,07,19,00,01,17.70
2009,07,19,00,02,17.70
2009,07,19,00,03,17.70
2009,07,19,00,04,17.70
2009,07,19,00,05,17.60
2009,07,19,00,06,17.60
2009,07,19,00,07,17.60
2009,07,19,00,08,17.50
2009,07,19,00,09,17.50
2009,07,19,00,10,17.40
2009,07,19,00,11,17.40
2009,07,19,00,12,17.40
2009,07,19,00,13,17.30
2009,07,19,00,14,17.30
2009,07,19,00,15,17.30
2009,07,19,00,16,17.20
2009,07,19,00,17,17.20
2009,07,19,00,18,17.20
2009,07,19,00,19,17.10
2009,07,19,00,20,17.10
2009,07,19,00,21,17.00
2009,07,19,00,22,16.90
2009,07,19,00,23,16.90
2009,07,19,00,24,16.90
2009,07,19,00,25,16.80
2009,07,19,00,26,16.80
2009,07,19,00,27,16.70
2009,07,19,00,28,16.70
2009,07,19,00,29,16.60
2009,07,19,00,30,16.60
2009,07,19,00,31,16.60
2009,07,19,00,32,16.50
2009,07,19,00,33,16.50
2009,07,19,00,34,16.40
2009,07,19,00,35,16.40
2009,07,19,00,36,16.30
2009,07,19,00,37,16.30
2009,07,19,00,38,16.20
2009,07,19,00,39,16.20
2009,07,19,00,40,16.10
2009,07,19,00,41,16.10
2009,07,19,00,42,16.10
2009,07,19,00,43,16.00
2009,07,19,00,44,16.00
2009,07,19,00,45,15.90
2009,07,19,00,46,15.90
2009,07,19,00,47,15.90
2009,07,19,00,48,15.80
2009,07,19,00,49,15.80
2009,07,19,00,50,15.80
2009,07,19,00,51,15.80
2009,07,19,00,52,15.80
2009,07,19,00,53,15.80
2009,07,19,00,54,15.70
2009,07,19,00,55,15.70
2009,07,19,00,56,15.70
2009,07,19,00,57,15.70
2009,07,19,00,58,15.70
2009,07,19,00,59,15.70
2009,07,19,01,00,15.70
2009,07,19,01,01,15.70
2009,07,19,01,02,15.70
2009,07,19,01,03,15.70
2009,07,19,01,04,15.70
2009,07,19,01,05,15.70
2009,07,19,01,06,15.70
2009,07,19,01,07,15.80
2009,07,19,01,08,15.80
2009,07,19,01,09,15.80
2009,07,19,01,10,15.80
2009,07,19,01,11,15.90
2009,07,19,01,12,15.90
2009,07,19,01,13,16.00
2009,07,19,01,14,16.00
2009,07,19,01,15,16.10
2009,07,19,01,16,16.10
2009,07,19,01,17,16.10
2009,07,19,01,18,16.20
2009,07,19,01,19,16.30
2009,07,19,01,20,16.30
2009,07,19,01,21,16.30
2009,07,19,01,22,16.40
2009,07,19,01,23,16.50
2009,07,19,01,24,16.60
2009,07,19,01,25,16.70
2009,07,19,01,26,16.80
2009,07,19,01,27,16.90
2009,07,19,01,28,16.90
2009,07,19,01,29,17.00
2009,07,19,01,30,17.00
2009,07,19,01,31,17.00
2009,07,19,01,32,17.00
2009,07,19,01,33,17.00
2009,07,19,01,34,17.10
2009,07,19,01,35,17.10
2009,07,19,01,36,17.10
2009,07,19,01,37,17.10
2009,07,19,01,38,17.10
2009,07,19,01,39,17.10
2009,07,19,01,40,17.10
2009,07,19,01,41,17.20
2009,07,19,01,42,17.20
2009,07,19,01,43,17.20
2009,07,19,01,44,17.30
2009,07,19,01,45,17.40
2009,07,19,01,46,17.40
2009,07,19,01,47,17.50
2009,07,19,01,48,17.60
2009,07,19,01,49,17.60
2009,07,19,01,50,17.70
2009,07,19,01,51,17.70
2009,07,19,01,52,17.70
2009,07,19,01,53,17.70
2009,07,19,01,54,17.80
2009,07,19,01,55,17.80
2009,07,19,01,56,17.80
2009,07,19,01,57,17.80
2009,07,19,01,58,17.90
2009,07,19,01,59,17.90
2009,07,19,02,00,17.90
2009,07,19,02,01,18.00
2009,07,19,02,02,18.00
2009,07,19,02,03,18.00
2009,07,19,02,04,18.10
2009,07,19,02,05,18.10
2009,07,19,02,06,18.10
2009,07,19,02,07,18.10
2009,07,19,02,08,18.10
2009,07,19,02,09,18.10
2009,07,19,02,10,18.10
2009,07,19,02,11,18.20
2009,07,19,02,12,18.20
2009,07,19,02,13,18.20
2009,07,19,02,14,18.20
2009,07,19,02,15,18.20
2009,07,19,02,16,18.20
2009,07,19,02,17,18.20
2009,07,19,02,18,18.10
2009,07,19,02,19,18.10
2009,07,19,02,20,18.10
2009,07,19,02,21,18.10
2009,07,19,02,22,18.10
2009,07,19,02,23,18.10
2009,07,19,02,24,18.10
2009,07,19,02,25,18.10
2009,07,19,02,26,18.10
2009,07,19,02,27,18.10
2009,07,19,02,28,18.10
2009,07,19,02,29,18.10
2009,07,19,02,30,18.10
2009,07,19,02,31,18.10
2009,07,19,02,32,18.10
2009,07,19,02,33,18.10
2009,07,19,02,34,18.10
2009,07,19,02,35,18.10
2009,07,19,02,36,18.00
2009,07,19,02,37,18.10
2009,07,19,02,38,18.10
2009,07,19,02,39,18.10
2009,07,19,02,40,18.10
2009,07,19,02,41,18.10
2009,07,19,02,42,18.10
2009,07,19,02,43,18.10
2009,07,19,02,44,18.10
2009,07,19,02,45,18.10
2009,07,19,02,46,18.10
2009,07,19,02,47,18.10
2009,07,19,02,48,18.00
2009,07,19,02,49,18.00
2009,07,19,02,50,17.90
2009,07,19,02,51,17.90
2009,07,19,02,52,17.90
2009,07,19,02,53,17.90
2009,07,19,02,54,17.80
2009,07,19,02,55,17.80
2009,07,19,02,56,17.80
2009,07,19,02,57,17.80
2009,07,19,02,58,17.80
2009,07,19,02,59,17.80
2009,07,19,03,00,17.80
2009,07,19,03,01,17.80
2009,07,19,03,02,17.70
2009,07,19,03,03,17.70
2009,07,19,03,04,17.70
2009,07,19,03,05,17.70
2009,07,19,03,06,17.70
2009,07,19,03,07,17.70
2009,07,19,03,08,17.70
2009,07,19,03,09,17.70
2009,07,19,03,10,17.70
2009,07,19,03,11,17.70
2009,07,19,03,12,17.70
2009,07,19,03,13,17.70
2009,07,19,03,14,17.70
2009,07,19,03,15,17.70
2009,07,19,03,16,17.70
2009,07,19,03,17,17.70
2009,07,19,03,18,17.70
2009,07,19,03,19,17.70
2009,07,19,03,20,17.70
2009,07,19,03,21,17.70
2009,07,19,03,22,17.70
2009,07,19,03,23,17.70
2009,07,19,03,24,17.70
2009,07,19,03,25,17.70
2009,07,19,03,26,17.70
2009,07,19,03,27,17.70
2009,07,19,03,28,17.70
2009,07,19,03,29,17.70
2009,07,19,03,30,17.70
2009,07,19,03,31,17.70
2009,07,19,03,32,17.70
2009,07,19,03,33,17.70
2009,07,19,03,34,17.60
2009,07,19,03,35,17.60
2009,07,19,03,36,17.60
2009,07,19,03,37,17.70
2009,07,19,03,38,17.70
2009,07,19,03,39,17.70
2009,07,19,03,40,17.60
2009,07,19,03,41,17.60
2009,07,19,03,42,17.50
2009,07,19,03,43,17.50
2009,07,19,03,44,17.40
2009,07,19,03,45,17.20
2009,07,19,03,46,17.00
2009,07,19,03,47,17.00
2009,07,19,03,48,16.90
2009,07,19,03,49,16.80
2009,07,19,03,50,16.70
2009,07,19,03,51,16.60
2009,07,19,03,52,16.50
2009,07,19,03,53,16.40
2009,07,19,03,54,16.30
2009,07,19,03,55,16.20
2009,07,19,03,56,16.20
2009,07,19,03,57,16.10
2009,07,19,03,58,16.10
2009,07,19,03,59,16.00
2009,07,19,04,00,15.90
2009,07,19,04,01,15.80
2009,07,19,04,02,15.70
2009,07,19,04,03,15.60
2009,07,19,04,04,15.50
2009,07,19,04,05,15.40
2009,07,19,04,06,15.40
2009,07,19,04,07,15.30
2009,07,19,04,08,15.20
2009,07,19,04,09,15.10
2009,07,19,04,10,15.00
2009,07,19,04,11,15.00
2009,07,19,04,12,15.00
2009,07,19,04,13,15.00
2009,07,19,04,14,14.90
2009,07,19,04,15,14.80
2009,07,19,04,16,14.80
2009,07,19,04,17,14.70
2009,07,19,04,18,14.70
2009,07,19,04,19,14.60
2009,07,19,04,20,14.60
2009,07,19,04,21,14.50
2009,07,19,04,22,14.50
2009,07,19,04,23,14.50
2009,07,19,04,24,14.40
2009,07,19,04,25,14.40
2009,07,19,04,26,14.40
2009,07,19,04,27,14.30
2009,07,19,04,28,14.20
2009,07,19,04,29,14.20
2009,07,19,04,30,14.20
2009,07,19,04,31,14.10
2009,07,19,04,32,14.10
2009,07,19,04,33,14.00
2009,07,19,04,34,14.00
2009,07,19,04,35,13.90
2009,07,19,04,36,13.90
2009,07,19,04,37,13.90
2009,07,19,04,38,13.80
2009,07,19,04,39,13.80
2009,07,19,04,40,13.80
2009,07,19,04,41,13.80
2009,07,19,04,42,13.80
2009,07,19,04,43,13.70
2009,07,19,04,44,13.70
2009,07,19,04,45,13.70
2009,07,19,04,46,13.70
2009,07,19,04,47,13.70
2009,07,19,04,48,13.60
2009,07,19,04,49,13.60
2009,07,19,04,50,13.60
2009,07,19,04,51,13.50
2009,07,19,04,52,13.50
2009,07,19,04,53,13.50
2009,07,19,04,54,13.40
2009,07,19,04,55,13.40
2009,07,19,04,56,13.40
2009,07,19,04,57,13.30
2009,07,19,04,58,13.30
2009,07,19,04,59,13.30
2009,07,19,05,00,13.30
2009,07,19,05,01,13.20
2009,07,19,05,02,13.20
2009,07,19,05,03,13.20
2009,07,19,05,04,13.20
2009,07,19,05,05,13.10
2009,07,19,05,06,13.10
2009,07,19,05,07,13.10
2009,07,19,05,08,13.00
2009,07,19,05,09,13.00
2009,07,19,05,10,13.00
2009,07,19,05,11,12.90
2009,07,19,05,12,12.90
2009,07,19,05,13,12.90
2009,07,19,05,14,12.90
2009,07,19,05,15,12.80
2009,07,19,05,16,12.80
2009,07,19,05,17,12.80
2009,07,19,05,18,12.80
2009,07,19,05,19,12.80
2009,07,19,05,20,12.80
2009,07,19,05,21,12.80
2009,07,19,05,22,12.70
2009,07,19,05,23,12.70
2009,07,19,05,24,12.70
2009,07,19,05,25,12.70
2009,07,19,05,26,12.70
2009,07,19,05,27,12.70
2009,07,19,05,28,12.70
2009,07,19,05,29,12.60
2009,07,19,05,30,12.60
2009,07,19,05,31,12.60
2009,07,19,05,32,12.60
2009,07,19,05,33,12.60
2009,07,19,05,34,12.60
2009,07,19,05,35,12.60
2009,07,19,05,36,12.60
2009,07,19,05,37,12.60
2009,07,19,05,38,12.50
2009,07,19,05,39,12.50
2009,07,19,05,40,12.50
2009,07,19,05,41,12.50
2009,07,19,05,42,12.50
2009,07,19,05,43,12.50
2009,07,19,05,44,12.50
2009,07,19,05,45,12.50
2009,07,19,05,46,12.40
2009,07,19,05,47,12.40
2009,07,19,05,48,12.40
2009,07,19,05,49,12.40
2009,07,19,05,50,12.40
2009,07,19,05,51,12.40
2009,07,19,05,52,12.40
2009,07,19,05,53,12.40
2009,07,19,05,54,12.50
2009,07,19,05,55,12.50
2009,07,19,05,56,12.50
2009,07,19,05,57,12.50
2009,07,19,05,58,12.50
2009,07,19,05,59,12.50
2009,07,19,06,00,12.50
2009,07,19,06,01,12.50
2009,07,19,06,02,12.50
2009,07,19,06,03,12.50
2009,07,19,06,04,12.50
2009,07,19,06,05,12.50
2009,07,19,06,06,12.60
2009,07,19,06,07,12.60
2009,07,19,06,08,12.60
2009,07,19,06,09,12.60
2009,07,19,06,10,12.60
2009,07,19,06,11,12.60
2009,07,19,06,12,12.60
2009,07,19,06,13,12.60
2009,07,19,06,14,12.60
2009,07,19,06,15,12.70
2009,07,19,06,16,12.70
2009,07,19,06,17,12.70
2009,07,19,06,18,12.70
2009,07,19,06,19,12.70
2009,07,19,06,20,12.80
2009,07,19,06,21,12.80
2009,07,19,06,22,12.80
2009,07,19,06,23,12.80
2009,07,19,06,24,12.80
2009,07,19,06,25,12.80
2009,07,19,06,26,12.90
2009,07,19,06,27,13.00
2009,07,19,06,28,13.10
2009,07,19,06,29,13.10
2009,07,19,06,30,13.20
2009,07,19,06,31,13.20
2009,07,19,06,32,13.20
2009,07,19,06,33,13.20
2009,07,19,06,34,13.20
2009,07,19,06,35,13.30
2009,07,19,06,36,13.30
2009,07,19,06,37,13.40
2009,07,19,06,38,13.50
2009,07,19,06,39,13.50
2009,07,19,06,40,13.60
2009,07,19,06,41,13.60
2009,07,19,06,42,13.60
2009,07,19,06,43,13.70
2009,07,19,06,44,13.70
2009,07,19,06,45,13.70
2009,07,19,06,46,13.80
2009,07,19,06,47,13.80
2009,07,19,06,48,13.90
2009,07,19,06,49,13.90
2009,07,19,06,50,14.00
2009,07,19,06,51,14.10
2009,07,19,06,52,14.10
2009,07,19,06,53,14.10
2009,07,19,06,54,14.20
2009,07,19,06,55,14.30
2009,07,19,06,56,14.30
2009,07,19,06,57,14.40
2009,07,19,06,58,14.50
2009,07,19,06,59,14.50
2009,07,19,07,00,14.60
2009,07,19,07,01,14.60
2009,07,19,07,02,14.60
2009,07,19,07,03,14.70
2009,07,19,07,04,14.70
2009,07,19,07,05,14.80
2009,07,19,07,06,14.80
2009,07,19,07,07,14.80
2009,07,19,07,08,14.80
2009,07,19,07,09,14.80
2009,07,19,07,10,14.80
2009,07,19,07,11,14.90
2009,07,19,07,12,15.00
2009,07,19,07,13,15.00
2009,07,19,07,14,15.00
2009,07,19,07,15,15.00
2009,07,19,07,16,15.00
2009,07,19,07,17,15.00
2009,07,19,07,18,15.00
2009,07,19,07,19,15.00
2009,07,19,07,20,15.00
2009,07,19,07,21,15.00
2009,07,19,07,22,15.00
2009,07,19,07,23,15.00
2009,07,19,07,24,15.00
2009,07,19,07,25,15.00
2009,07,19,07,26,15.00
2009,07,19,07,27,15.00
2009,07,19,07,28,15.00
2009,07,19,07,29,15.00
2009,07,19,07,30,15.00
2009,07,19,07,31,15.20
2009,07,19,07,32,15.20
2009,07,19,07,33,15.30
2009,07,19,07,34,15.40
2009,07,19,07,35,15.50
2009,07,19,07,36,15.60
2009,07,19,07,37,15.60
2009,07,19,07,38,15.60
2009,07,19,07,39,15.60
2009,07,19,07,40,15.70
2009,07,19,07,41,15.70
2009,07,19,07,42,15.70
2009,07,19,07,43,15.70
2009,07,19,07,44,15.70
2009,07,19,07,45,15.70
2009,07,19,07,46,15.80
2009,07,19,07,47,15.80
2009,07,19,07,48,15.90
2009,07,19,07,49,15.90
2009,07,19,07,50,16.00
2009,07,19,07,51,16.10
2009,07,19,07,52,16.20
2009,07,19,07,53,16.30
2009,07,19,07,54,16.30
2009,07,19,07,55,16.30
2009,07,19,07,56,16.40
2009,07,19,07,57,16.40
2009,07,19,07,58,16.50
2009,07,19,07,59,16.50
2009,07,19,08,00,16.60
2009,07,19,08,01,16.60
2009,07,19,08,02,16.60
2009,07,19,08,03,16.60
2009,07,19,08,04,16.50
2009,07,19,08,05,16.40
2009,07,19,08,06,16.30
2009,07,19,08,07,16.20
2009,07,19,08,08,16.00
2009,07,19,08,09,15.90
2009,07,19,08,10,15.70
2009,07,19,08,11,15.60
2009,07,19,08,12,15.60
2009,07,19,08,13,15.60
2009,07,19,08,14,15.60
2009,07,19,08,15,15.70
2009,07,19,08,16,15.70
2009,07,19,08,17,15.70
2009,07,19,08,18,15.70
2009,07,19,08,19,15.70
2009,07,19,08,20,15.70
2009,07,19,08,21,15.80
2009,07,19,08,22,15.80
2009,07,19,08,23,15.90
2009,07,19,08,24,15.90
2009,07,19,08,25,16.00
2009,07,19,08,26,16.00
2009,07,19,08,27,16.10
2009,07,19,08,28,16.20
2009,07,19,08,29,16.30
2009,07,19,08,30,16.30
2009,07,19,08,31,16.40
2009,07,19,08,32,16.40
2009,07,19,08,33,16.50
2009,07,19,08,34,16.50
2009,07,19,08,35,16.60
2009,07,19,08,36,16.60
2009,07,19,08,37,16.60
2009,07,19,08,38,16.60
2009,07,19,08,39,16.60
2009,07,19,08,40,16.60
2009,07,19,08,41,16.70
2009,07,19,08,42,16.70
2009,07,19,08,43,16.60
2009,07,19,08,44,16.50
2009,07,19,08,45,16.50
2009,07,19,08,46,16.50
2009,07,19,08,47,16.50
2009,07,19,08,48,16.50
2009,07,19,08,49,16.50
2009,07,19,08,50,16.60
2009,07,19,08,51,16.70
2009,07,19,08,52,16.80
2009,07,19,08,53,16.80
2009,07,19,08,54,16.90
2009,07,19,08,55,17.00
2009,07,19,08,56,17.00
2009,07,19,08,57,17.10
2009,07,19,08,58,17.20
2009,07,19,08,59,17.30
2009,07,19,09,00,17.30
2009,07,19,09,01,17.30
2009,07,19,09,02,17.40
2009,07,19,09,03,17.40
2009,07,19,09,04,17.40
2009,07,19,09,05,17.40
2009,07,19,09,06,17.40
2009,07,19,09,07,17.40
2009,07,19,09,08,17.40
2009,07,19,09,09,17.40
2009,07,19,09,10,17.50
2009,07,19,09,11,17.60
2009,07,19,09,12,17.70
2009,07,19,09,13,17.70
2009,07,19,09,14,17.80
2009,07,19,09,15,17.80
2009,07,19,09,16,17.90
2009,07,19,09,17,17.90
2009,07,19,09,18,18.00
2009,07,19,09,19,18.10
2009,07,19,09,20,18.10
2009,07,19,09,21,18.10
2009,07,19,09,22,18.10
2009,07,19,09,23,18.10
2009,07,19,09,24,18.10
2009,07,19,09,25,18.00
2009,07,19,09,26,17.90
2009,07,19,09,27,17.90
2009,07,19,09,28,17.70
2009,07,19,09,29,17.50
2009,07,19,09,30,17.30
2009,07,19,09,31,17.20
2009,07,19,09,32,17.20
2009,07,19,09,33,17.10
2009,07,19,09,34,17.10
2009,07,19,09,35,17.20
2009,07,19,09,36,17.30
2009,07,19,09,37,17.30
2009,07,19,09,38,17.30
2009,07,19,09,39,17.40
2009,07,19,09,40,17.50
2009,07,19,09,41,17.60
2009,07,19,09,42,17.60
2009,07,19,09,43,17.70
2009,07,19,09,44,17.80
2009,07,19,09,45,17.90
2009,07,19,09,46,17.90
2009,07,19,09,47,18.00
2009,07,19,09,48,18.10
2009,07,19,09,49,18.20
2009,07,19,09,50,18.30
2009,07,19,09,51,18.40
2009,07,19,09,52,18.60
2009,07,19,09,53,18.70
2009,07,19,09,54,18.80
2009,07,19,09,55,18.90
2009,07,19,09,56,18.90
2009,07,19,09,57,18.90
2009,07,19,09,58,18.90
2009,07,19,09,59,18.90
2009,07,19,10,00,18.90
2009,07,19,10,01,18.90
2009,07,19,10,02,19.00
2009,07,19,10,03,19.00
2009,07,19,10,04,19.10
2009,07,19,10,05,19.20
2009,07,19,10,06,19.30
2009,07,19,10,07,19.30
2009,07,19,10,08,19.30
2009,07,19,10,09,19.30
2009,07,19,10,10,19.30
2009,07,19,10,11,19.30
2009,07,19,10,12,19.30
2009,07,19,10,13,19.20
2009,07,19,10,14,19.20
2009,07,19,10,15,19.20
2009,07,19,10,16,19.20
2009,07,19,10,17,19.20
2009,07,19,10,18,19.20
2009,07,19,10,19,19.30
2009,07,19,10,20,19.40
2009,07,19,10,21,19.40
2009,07,19,10,22,19.40
2009,07,19,10,23,19.30
2009,07,19,10,24,19.30
2009,07,19,10,25,19.40
2009,07,19,10,26,19.50
2009,07,19,10,27,19.60
2009,07,19,10,28,19.70
2009,07,19,10,29,19.80
2009,07,19,10,30,19.80
2009,07,19,10,31,19.90
2009,07,19,10,32,19.90
2009,07,19,10,33,19.90
2009,07,19,10,34,20.00
2009,07,19,10,35,20.00
2009,07,19,10,36,19.90
2009,07,19,10,37,19.90
2009,07,19,10,38,19.80
2009,07,19,10,39,19.70
2009,07,19,10,40,19.70
2009,07,19,10,41,19.70
2009,07,19,10,42,19.70
2009,07,19,10,43,19.70
2009,07,19,10,44,19.60
2009,07,19,10,45,19.50
2009,07,19,10,46,19.40
2009,07,19,10,47,19.40
2009,07,19,10,48,19.30
2009,07,19,10,49,19.30
2009,07,19,10,50,19.40
2009,07,19,10,51,19.40
2009,07,19,10,52,19.50
2009,07,19,10,53,19.50
2009,07,19,10,54,19.60
2009,07,19,10,55,19.50
2009,07,19,10,56,19.50
2009,07,19,10,57,19.40
2009,07,19,10,58,19.50
2009,07,19,10,59,19.50
2009,07,19,11,00,19.60
2009,07,19,11,01,19.70
2009,07,19,11,02,19.80
2009,07,19,11,03,19.90
2009,07,19,11,04,20.00
2009,07,19,11,05,20.10
2009,07,19,11,06,20.20
2009,07,19,11,07,20.20
2009,07,19,11,08,20.10
2009,07,19,11,09,20.10
2009,07,19,11,10,20.00
2009,07,19,11,11,19.80
2009,07,19,11,12,19.70
2009,07,19,11,13,19.60
2009,07,19,11,14,19.60
2009,07,19,11,15,19.60
2009,07,19,11,16,19.50
2009,07,19,11,17,19.40
2009,07,19,11,18,19.30
2009,07,19,11,19,19.30
2009,07,19,11,20,19.40
2009,07,19,11,21,19.50
2009,07,19,11,22,19.50
2009,07,19,11,23,19.50
2009,07,19,11,24,19.50
2009,07,19,11,25,19.40
2009,07,19,11,26,19.40
2009,07,19,11,27,19.40
2009,07,19,11,28,19.50
2009,07,19,11,29,19.60
2009,07,19,11,30,19.60
2009,07,19,11,31,19.60
2009,07,19,11,32,19.60
2009,07,19,11,33,19.70
2009,07,19,11,34,19.70
2009,07,19,11,35,19.70
2009,07,19,11,36,19.70
2009,07,19,11,37,19.80
2009,07,19,11,38,19.80
2009,07,19,11,39,19.80
2009,07,19,11,40,19.70
2009,07,19,11,41,19.70
2009,07,19,11,42,19.60
2009,07,19,11,43,19.60
2009,07,19,11,44,19.50
2009,07,19,11,45,19.50
2009,07,19,11,46,19.40
2009,07,19,11,47,19.40
2009,07,19,11,48,19.40
2009,07,19,11,49,19.50
2009,07,19,11,50,19.60
2009,07,19,11,51,19.70
2009,07,19,11,52,19.90
2009,07,19,11,53,20.10
2009,07,19,11,54,20.30
2009,07,19,11,55,20.40
2009,07,19,11,56,20.60
2009,07,19,11,57,20.60
2009,07,19,11,58,20.50
2009,07,19,11,59,20.30
2009,07,19,12,00,20.20
2009,07,19,12,01,20.20
2009,07,19,12,02,20.20
2009,07,19,12,03,20.30
2009,07,19,12,04,20.30
2009,07,19,12,05,20.40
2009,07,19,12,06,20.40
2009,07,19,12,07,20.50
2009,07,19,12,08,20.50
2009,07,19,12,09,20.50
2009,07,19,12,10,20.40
2009,07,19,12,11,20.50
2009,07,19,12,12,20.40
2009,07,19,12,13,20.30
2009,07,19,12,14,20.20
2009,07,19,12,15,20.20
2009,07,19,12,16,20.10
2009,07,19,12,17,20.10
2009,07,19,12,18,20.20
2009,07,19,12,19,20.20
2009,07,19,12,20,20.20
2009,07,19,12,21,20.30
2009,07,19,12,22,20.30
2009,07,19,12,23,20.30
2009,07,19,12,24,20.40
2009,07,19,12,25,20.40
2009,07,19,12,26,20.30
2009,07,19,12,27,20.30
2009,07,19,12,28,20.20
2009,07,19,12,29,20.20
2009,07,19,12,30,20.20
2009,07,19,12,31,20.10
2009,07,19,12,32,20.10
2009,07,19,12,33,20.10
2009,07,19,12,34,20.10
2009,07,19,12,35,20.10
2009,07,19,12,36,20.10
2009,07,19,12,37,20.20
2009,07,19,12,38,20.40
2009,07,19,12,39,20.50
2009,07,19,12,40,20.60
2009,07,19,12,41,20.70
2009,07,19,12,42,21.00
2009,07,19,12,43,21.00
2009,07,19,12,44,21.00
2009,07,19,12,45,21.10
2009,07,19,12,46,21.10
2009,07,19,12,47,21.00
2009,07,19,12,48,21.00
2009,07,19,12,49,21.00
2009,07,19,12,50,21.00
2009,07,19,12,51,21.00
2009,07,19,12,52,21.00
2009,07,19,12,53,20.90
2009,07,19,12,54,20.80
2009,07,19,12,55,20.70
2009,07,19,12,56,20.70
2009,07,19,12,57,20.60
2009,07,19,12,58,20.50
2009,07,19,12,59,20.50
2009,07,19,13,00,20.50
2009,07,19,13,01,20.50
2009,07,19,13,02,20.50
2009,07,19,13,03,20.60
2009,07,19,13,04,20.80
2009,07,19,13,05,20.90
2009,07,19,13,06,20.90
2009,07,19,13,07,21.10
2009,07,19,13,08,21.20
2009,07,19,13,09,21.20
2009,07,19,13,10,21.30
2009,07,19,13,11,21.40
2009,07,19,13,12,21.40
2009,07,19,13,13,21.50
2009,07,19,13,14,21.60
2009,07,19,13,15,21.70
2009,07,19,13,16,21.50
2009,07,19,13,17,21.30
2009,07,19,13,18,21.10
2009,07,19,13,19,20.80
2009,07,19,13,20,20.80
2009,07,19,13,21,20.70
2009,07,19,13,22,20.70
2009,07,19,13,23,20.80
2009,07,19,13,24,20.90
2009,07,19,13,25,20.90
2009,07,19,13,26,21.00
2009,07,19,13,27,21.10
2009,07,19,13,28,21.10
2009,07,19,13,29,21.10
2009,07,19,13,30,21.10
2009,07,19,13,31,21.20
2009,07,19,13,32,21.30
2009,07,19,13,33,21.30
2009,07,19,13,34,21.30
2009,07,19,13,35,21.30
2009,07,19,13,36,21.30
2009,07,19,13,37,21.30
2009,07,19,13,38,21.30
2009,07,19,13,39,21.20
2009,07,19,13,40,21.10
2009,07,19,13,41,21.00
2009,07,19,13,42,21.00
2009,07,19,13,43,20.90
2009,07,19,13,44,20.90
2009,07,19,13,45,20.90
2009,07,19,13,46,20.80
2009,07,19,13,47,20.80
2009,07,19,13,48,20.90
2009,07,19,13,49,20.90
2009,07,19,13,50,21.00
2009,07,19,13,51,21.00
2009,07,19,13,52,21.10
2009,07,19,13,53,21.10
2009,07,19,13,54,21.10
2009,07,19,13,55,21.10
2009,07,19,13,56,20.90
2009,07,19,13,57,20.80
2009,07,19,13,58,20.70
2009,07,19,13,59,20.70
2009,07,19,14,00,20.70
2009,07,19,14,01,20.80
2009,07,19,14,02,20.70
2009,07,19,14,03,20.70
2009,07,19,14,04,20.70
2009,07,19,14,05,20.70
2009,07,19,14,06,20.60
2009,07,19,14,07,20.60
2009,07,19,14,08,20.70
2009,07,19,14,09,20.60
2009,07,19,14,10,20.60
2009,07,19,14,11,20.70
2009,07,19,14,12,20.80
2009,07,19,14,13,20.90
2009,07,19,14,14,21.00
2009,07,19,14,15,21.00
2009,07,19,14,16,21.10
2009,07,19,14,17,21.10
2009,07,19,14,18,21.00
2009,07,19,14,19,21.00
2009,07,19,14,20,20.90
2009,07,19,14,21,20.90
2009,07,19,14,22,20.90
2009,07,19,14,23,20.80
2009,07,19,14,24,20.80
2009,07,19,14,25,20.70
2009,07,19,14,26,20.60
2009,07,19,14,27,20.60
2009,07,19,14,28,20.60
2009,07,19,14,29,20.60
2009,07,19,14,30,20.60
2009,07,19,14,31,20.60
2009,07,19,14,32,20.70
2009,07,19,14,33,20.60
2009,07,19,14,34,20.60
2009,07,19,14,35,20.60
2009,07,19,14,36,20.30
2009,07,19,14,37,20.20
2009,07,19,14,38,20.20
2009,07,19,14,39,20.20
2009,07,19,14,40,20.20
2009,07,19,14,41,20.20
2009,07,19,14,42,20.30
2009,07,19,14,43,20.40
2009,07,19,14,44,20.40
2009,07,19,14,45,20.50
2009,07,19,14,46,20.60
2009,07,19,14,47,20.80
2009,07,19,14,48,20.90
2009,07,19,14,49,20.90
2009,07,19,14,50,21.00
2009,07,19,14,51,21.10
2009,07,19,14,52,21.00
2009,07,19,14,53,20.90
2009,07,19,14,54,20.70
2009,07,19,14,55,20.60
2009,07,19,14,56,20.40
2009,07,19,14,57,20.30
2009,07,19,14,58,20.30
2009,07,19,14,59,20.30
2009,07,19,15,00,20.30
2009,07,19,15,01,20.40
2009,07,19,15,02,20.40
2009,07,19,15,03,20.50
2009,07,19,15,04,20.60
2009,07,19,15,05,20.60
2009,07,19,15,06,20.70
2009,07,19,15,07,20.70
2009,07,19,15,08,20.70
2009,07,19,15,09,20.60
2009,07,19,15,10,20.50
2009,07,19,15,11,20.40
2009,07,19,15,12,20.40
2009,07,19,15,13,20.40
2009,07,19,15,14,20.30
2009,07,19,15,15,20.30
2009,07,19,15,16,20.40
2009,07,19,15,17,20.40
2009,07,19,15,18,20.40
2009,07,19,15,19,20.50
2009,07,19,15,20,20.60
2009,07,19,15,21,20.60
2009,07,19,15,22,20.70
2009,07,19,15,23,20.60
2009,07,19,15,24,20.50
2009,07,19,15,25,20.50
2009,07,19,15,26,20.30
2009,07,19,15,27,20.30
2009,07,19,15,28,20.30
2009,07,19,15,29,20.30
2009,07,19,15,30,20.40
2009,07,19,15,31,20.40
2009,07,19,15,32,20.50
2009,07,19,15,33,20.70
2009,07,19,15,34,20.80
2009,07,19,15,35,20.90
2009,07,19,15,36,20.90
2009,07,19,15,37,20.90
2009,07,19,15,38,21.00
2009,07,19,15,39,20.90
2009,07,19,15,40,20.80
2009,07,19,15,41,20.70
2009,07,19,15,42,20.60
2009,07,19,15,43,20.60
2009,07,19,15,44,20.50
2009,07,19,15,45,20.50
2009,07,19,15,46,20.40
2009,07,19,15,47,20.30
2009,07,19,15,48,20.30
2009,07,19,15,49,20.40
2009,07,19,15,50,20.50
2009,07,19,15,51,20.50
2009,07,19,15,52,20.60
2009,07,19,15,53,20.60
2009,07,19,15,54,20.60
2009,07,19,15,55,20.70
2009,07,19,15,56,20.70
2009,07,19,15,57,20.70
2009,07,19,15,58,20.80
2009,07,19,15,59,20.60
2009,07,19,16,00,20.60
2009,07,19,16,01,20.60
2009,07,19,16,02,20.70
2009,07,19,16,03,20.80
2009,07,19,16,04,20.80
2009,07,19,16,05,20.90
2009,07,19,16,06,20.90
2009,07,19,16,07,21.00
2009,07,19,16,08,21.00
2009,07,19,16,09,21.00
2009,07,19,16,10,21.00
2009,07,19,16,11,20.90
2009,07,19,16,12,20.90
2009,07,19,16,13,20.80
2009,07,19,16,14,20.80
2009,07,19,16,15,20.80
2009,07,19,16,16,20.80
2009,07,19,16,17,20.90
2009,07,19,16,18,20.90
2009,07,19,16,19,20.90
2009,07,19,16,20,20.90
2009,07,19,16,21,20.90
2009,07,19,16,22,20.90
2009,07,19,16,23,20.90
2009,07,19,16,24,20.80
2009,07,19,16,25,20.80
2009,07,19,16,26,20.80
2009,07,19,16,27,20.80
2009,07,19,16,28,20.80
2009,07,19,16,29,20.70
2009,07,19,16,30,20.70
2009,07,19,16,31,20.70
2009,07,19,16,32,20.70
2009,07,19,16,33,20.70
2009,07,19,16,34,20.70
2009,07,19,16,35,20.70
2009,07,19,16,36,20.70
2009,07,19,16,37,20.70
2009,07,19,16,38,20.70
2009,07,19,16,39,20.80
2009,07,19,16,40,20.80
2009,07,19,16,41,20.90
2009,07,19,16,42,20.90
2009,07,19,16,43,20.90
2009,07,19,16,44,21.00
2009,07,19,16,45,21.00
2009,07,19,16,46,21.00
2009,07,19,16,47,20.90
2009,07,19,16,48,20.90
2009,07,19,16,49,20.90
2009,07,19,16,50,21.00
2009,07,19,16,51,21.00
2009,07,19,16,52,21.00
2009,07,19,16,53,21.00
2009,07,19,16,54,21.00
2009,07,19,16,55,21.00
2009,07,19,16,56,20.90
2009,07,19,16,57,20.90
2009,07,19,16,58,20.90
2009,07,19,16,59,21.00
2009,07,19,17,00,21.00
2009,07,19,17,01,21.00
2009,07,19,17,02,21.10
2009,07,19,17,03,21.10
2009,07,19,17,04,21.10
2009,07,19,17,05,21.10
2009,07,19,17,06,21.10
2009,07,19,17,07,21.10
2009,07,19,17,08,21.20
2009,07,19,17,09,21.20
2009,07,19,17,10,21.20
2009,07,19,17,11,21.30
2009,07,19,17,12,21.30
2009,07,19,17,13,21.30
2009,07,19,17,14,21.40
2009,07,19,17,15,21.40
2009,07,19,17,16,21.50
2009,07,19,17,17,21.50
2009,07,19,17,18,21.50
2009,07,19,17,19,21.50